Location: Foulognes
(49.1413°N, 0.8183°W)
Time: 11:29:58
(UTC+00:00)

Cosmos 2123 Rocket - Pass Details

Date: 21 October 2019
Orbit: 960 x 993 km, 82.9° (Epoch: 14 November)

Event Time Altitude Azimuth Distance (km) Brightness Sun altitude
Rises 19:17:23 0° 171° (S) 3,688 6.8 -22.7°
Reaches altitude 10° 19:19:57 10° 167° (SSE) 2,740 6.1 -23.1°
Enters shadow 19:20:00 10° 167° (SSE) 2,725 6.1 -23.1°
Exits shadow 19:24:47 47° 130° (SE) 1,286 4.2 -23.9°
Maximum altitude 19:26:02 54° 92° (E) 1,179 4.0 -24.1°
Drops below altitude 10° 19:32:07 10° 17° (NNE) 2,738 6.3 -25.1°
Sets 19:34:40 0° 13° (NNE) 3,685 7.0 -25.5°
